Time,TemperatureF,DewpointF,PressureIn,WindDirection,WindDirectionDegrees,WindSpeedMPH,WindSpeedGustMPH,Humidity,HourlyPrecipIn,Conditions,Clouds,dailyrainin,SolarRadiationWatts/m^2,SoftwareType,DateUTC
2013-03-04 00:01:00,41.0,40.0,-100.00,South,169,0.0,4.0,95,0.00,,,0.11,0.000000,,2013-03-04 05:01:00,
2013-03-04 00:11:00,41.0,40.0,-100.00,NNW,342,2.0,4.0,96,0.00,,,0.09,0.000000,,2013-03-04 05:11:00,
2013-03-04 00:32:00,41.0,40.0,-100.00,NNW,342,2.0,4.0,96,0.00,,,0.09,0.000000,,2013-03-04 05:32:00,
2013-03-04 00:43:00,41.0,40.0,-100.00,NNW,342,2.0,4.0,96,0.00,,,0.09,0.000000,,2013-03-04 05:43:00,
2013-03-04 00:52:00,41.0,40.0,-100.00,NNW,342,2.0,4.0,96,0.00,,,0.09,0.000000,,2013-03-04 05:52:00,
2013-03-04 01:02:00,41.0,40.0,-100.00,NNW,342,2.0,4.0,96,0.00,,,0.09,0.000000,,2013-03-04 06:02:00,
2013-03-04 01:11:00,43.0,41.0,-100.00,North,359,2.0,6.0,94,0.00,,,0.07,0.000000,,2013-03-04 06:11:00,
2013-03-04 01:32:00,43.0,41.0,-100.00,North,359,2.0,6.0,94,0.00,,,0.07,0.000000,,2013-03-04 06:32:00,
2013-03-04 01:42:00,43.0,41.0,-100.00,North,359,2.0,6.0,94,0.00,,,0.07,0.000000,,2013-03-04 06:42:00,
2013-03-04 01:52:00,43.0,41.0,-100.00,North,359,2.0,6.0,94,0.00,,,0.07,0.000000,,2013-03-04 06:52:00,
2013-03-04 02:02:00,43.0,41.0,-100.00,North,359,2.0,6.0,94,0.00,,,0.07,0.000000,,2013-03-04 07:02:00,
2013-03-04 02:11:00,39.0,37.0,-100.00,ESE,120,0.0,4.0,91,0.00,,,0.05,0.000000,,2013-03-04 07:11:00,
2013-03-04 02:32:00,39.0,37.0,-100.00,ESE,120,0.0,4.0,91,0.00,,,0.05,0.000000,,2013-03-04 07:32:00,
2013-03-04 02:42:00,39.0,37.0,-100.00,ESE,120,0.0,4.0,91,0.00,,,0.05,0.000000,,2013-03-04 07:42:00,
2013-03-04 02:52:00,39.0,37.0,-100.00,ESE,120,0.0,4.0,91,0.00,,,0.05,0.000000,,2013-03-04 07:52:00,
2013-03-04 03:02:00,39.0,37.0,-100.00,ESE,120,0.0,4.0,91,0.00,,,0.05,0.000000,,2013-03-04 08:02:00,
2013-03-04 03:11:00,36.0,34.0,-100.00,SW,223,0.0,2.0,93,0.00,,,0.03,0.000000,,2013-03-04 08:11:00,
2013-03-04 03:42:00,36.0,34.0,-100.00,SW,223,0.0,2.0,93,0.00,,,0.03,0.000000,,2013-03-04 08:42:00,
2013-03-04 03:52:00,36.0,34.0,-100.00,SW,223,0.0,2.0,93,0.00,,,0.03,0.000000,,2013-03-04 08:52:00,
2013-03-04 04:02:00,36.0,34.0,-100.00,SW,223,0.0,2.0,93,0.00,,,0.03,0.000000,,2013-03-04 09:02:00,
2013-03-04 04:11:00,35.0,33.0,-100.00,South,169,0.0,2.0,94,0.00,,,0.02,0.000000,,2013-03-04 09:11:00,
2013-03-04 04:32:00,35.0,33.0,-100.00,South,169,0.0,2.0,94,0.00,,,0.02,0.000000,,2013-03-04 09:32:00,
2013-03-04 04:42:00,35.0,33.0,-100.00,South,169,0.0,2.0,94,0.00,,,0.02,0.000000,,2013-03-04 09:42:00,
2013-03-04 04:52:00,35.0,33.0,-100.00,South,169,0.0,2.0,94,0.00,,,0.02,0.000000,,2013-03-04 09:52:00,
2013-03-04 05:01:00,35.0,33.0,-100.00,South,169,0.0,2.0,94,0.00,,,0.02,0.000000,,2013-03-04 10:01:00,
2013-03-04 05:11:00,34.0,33.0,-100.00,North,353,0.0,2.0,95,0.00,,,0.01,0.000000,,2013-03-04 10:11:00,
2013-03-04 05:32:00,34.0,33.0,-100.00,North,353,0.0,2.0,95,0.00,,,0.01,0.000000,,2013-03-04 10:32:00,
2013-03-04 05:42:00,34.0,33.0,-100.00,North,353,0.0,2.0,95,0.00,,,0.01,0.000000,,2013-03-04 10:42:00,
2013-03-04 05:52:00,34.0,33.0,-100.00,North,353,0.0,2.0,95,0.00,,,0.01,0.000000,,2013-03-04 10:52:00,
2013-03-04 06:02:00,34.0,33.0,-100.00,North,353,0.0,2.0,95,0.00,,,0.01,0.000000,,2013-03-04 11:02:00,
2013-03-04 06:11:00,32.0,31.0,-100.00,South,175,0.0,2.0,95,0.00,,,0.00,0.000000,,2013-03-04 11:11:00,
2013-03-04 06:32:00,32.0,31.0,-100.00,South,175,0.0,2.0,95,0.00,,,0.00,0.000000,,2013-03-04 11:32:00,
2013-03-04 06:42:00,32.0,31.0,-100.00,South,175,0.0,2.0,95,0.00,,,0.00,0.000000,,2013-03-04 11:42:00,
2013-03-04 06:52:00,32.0,31.0,-100.00,South,175,0.0,2.0,95,0.00,,,0.00,0.000000,,2013-03-04 11:52:00,
2013-03-04 07:02:00,32.0,31.0,-100.00,South,175,0.0,2.0,95,0.00,,,0.00,0.000000,,2013-03-04 12:02:00,
2013-03-04 07:11:00,32.0,31.0,-100.00,NNE,22,0.0,2.0,95,0.00,,,0.00,4.000000,,2013-03-04 12:11:00,
2013-03-04 07:32:00,32.0,31.0,-100.00,NNE,22,0.0,2.0,95,0.00,,,0.00,4.000000,,2013-03-04 12:32:00,
2013-03-04 07:43:00,32.0,31.0,-100.00,NNE,22,0.0,2.0,95,0.00,,,0.00,4.000000,,2013-03-04 12:43:00,
2013-03-04 07:53:00,32.0,31.0,-100.00,NNE,22,0.0,2.0,95,0.00,,,0.00,4.000000,,2013-03-04 12:53:00,
2013-03-04 08:02:00,32.0,31.0,-100.00,NNE,22,0.0,2.0,95,0.00,,,0.00,4.000000,,2013-03-04 13:02:00,
2013-03-04 08:11:00,42.0,41.0,-100.00,NNE,24,1.0,3.0,95,0.00,,,0.00,100.000000,,2013-03-04 13:11:00,
2013-03-04 08:42:00,42.0,41.0,-100.00,NNE,24,1.0,3.0,95,0.00,,,0.00,100.000000,,2013-03-04 13:42:00,
2013-03-04 08:52:00,42.0,41.0,-100.00,NNE,24,1.0,3.0,95,0.00,,,0.00,100.000000,,2013-03-04 13:52:00,
2013-03-04 09:01:00,42.0,41.0,-100.00,NNE,24,1.0,3.0,95,0.00,,,0.00,100.000000,,2013-03-04 14:01:00,
2013-03-04 09:11:00,51.0,38.0,-100.00,NNE,16,4.0,9.0,60,0.00,,,0.00,349.000000,,2013-03-04 14:11:00,
2013-03-04 09:32:00,51.0,38.0,-100.00,NNE,16,4.0,9.0,60,0.00,,,0.00,349.000000,,2013-03-04 14:32:00,
2013-03-04 09:42:00,51.0,38.0,-100.00,NNE,16,4.0,9.0,60,0.00,,,0.00,349.000000,,2013-03-04 14:42:00,
2013-03-04 09:52:00,51.0,38.0,-100.00,NNE,16,4.0,9.0,60,0.00,,,0.00,349.000000,,2013-03-04 14:52:00,
2013-03-04 10:02:00,51.0,38.0,-100.00,NNE,16,4.0,9.0,60,0.00,,,0.00,349.000000,,2013-03-04 15:02:00,
2013-03-04 10:11:00,56.0,39.0,-100.00,North,9,6.0,12.0,52,0.00,,,0.00,554.000000,,2013-03-04 15:11:00,
2013-03-04 10:42:00,56.0,39.0,-100.00,North,9,6.0,12.0,52,0.00,,,0.00,554.000000,,2013-03-04 15:42:00,
2013-03-04 10:52:00,56.0,39.0,-100.00,North,9,6.0,12.0,52,0.00,,,0.00,554.000000,,2013-03-04 15:52:00,
2013-03-04 11:03:00,56.0,39.0,-100.00,North,9,6.0,12.0,52,0.00,,,0.00,554.000000,,2013-03-04 16:03:00,
2013-03-04 11:11:00,60.0,39.0,-100.00,North,358,6.0,11.0,45,0.00,,,0.00,709.000000,,2013-03-04 16:11:00,
2013-03-04 11:42:00,60.0,39.0,-100.00,North,358,6.0,11.0,45,0.00,,,0.00,709.000000,,2013-03-04 16:42:00,
2013-03-04 11:52:00,60.0,39.0,-100.00,North,358,6.0,11.0,45,0.00,,,0.00,709.000000,,2013-03-04 16:52:00,
2013-03-04 12:02:00,60.0,39.0,-100.00,North,358,6.0,11.0,45,0.00,,,0.00,709.000000,,2013-03-04 17:02:00,
2013-03-04 12:11:00,64.0,38.0,-100.00,North,6,4.0,10.0,38,0.00,,,0.00,804.000000,,2013-03-04 17:11:00,
2013-03-04 12:42:00,64.0,38.0,-100.00,North,6,4.0,10.0,38,0.00,,,0.00,804.000000,,2013-03-04 17:42:00,
2013-03-04 12:52:00,64.0,38.0,-100.00,North,6,4.0,10.0,38,0.00,,,0.00,804.000000,,2013-03-04 17:52:00,
2013-03-04 13:02:00,64.0,38.0,-100.00,North,6,4.0,10.0,38,0.00,,,0.00,804.000000,,2013-03-04 18:02:00,
2013-03-04 13:11:00,67.0,35.0,-100.00,NNW,336,3.0,9.0,31,0.00,,,0.00,832.000000,,2013-03-04 18:11:00,
2013-03-04 13:32:00,67.0,35.0,-100.00,NNW,336,3.0,9.0,31,0.00,,,0.00,832.000000,,2013-03-04 18:32:00,
2013-03-04 13:42:00,67.0,35.0,-100.00,NNW,336,3.0,9.0,31,0.00,,,0.00,832.000000,,2013-03-04 18:42:00,
2013-03-04 13:52:00,67.0,35.0,-100.00,NNW,336,3.0,9.0,31,0.00,,,0.00,832.000000,,2013-03-04 18:52:00,
2013-03-04 14:02:00,67.0,35.0,-100.00,NNW,336,3.0,9.0,31,0.00,,,0.00,832.000000,,2013-03-04 19:02:00,
2013-03-04 14:11:00,70.0,35.0,-100.00,SW,227,3.0,8.0,28,0.00,,,0.00,792.000000,,2013-03-04 19:11:00,
2013-03-04 14:32:00,70.0,35.0,-100.00,SW,227,3.0,8.0,28,0.00,,,0.00,792.000000,,2013-03-04 19:32:00,
2013-03-04 14:42:00,70.0,35.0,-100.00,SW,227,3.0,8.0,28,0.00,,,0.00,792.000000,,2013-03-04 19:42:00,
2013-03-04 14:52:00,70.0,35.0,-100.00,SW,227,3.0,8.0,28,0.00,,,0.00,792.000000,,2013-03-04 19:52:00,
2013-03-04 15:02:00,70.0,35.0,-100.00,SW,227,3.0,8.0,28,0.00,,,0.00,792.000000,,2013-03-04 20:02:00,
2013-03-04 15:11:00,71.0,35.0,-100.00,NW,308,3.0,8.0,27,0.00,,,0.00,690.000000,,2013-03-04 20:11:00,
2013-03-04 15:33:00,71.0,35.0,-100.00,NW,308,3.0,8.0,27,0.00,,,0.00,690.000000,,2013-03-04 20:33:00,
2013-03-04 15:42:00,71.0,35.0,-100.00,NW,308,3.0,8.0,27,0.00,,,0.00,690.000000,,2013-03-04 20:42:00,
2013-03-04 15:53:00,71.0,35.0,-100.00,NW,308,3.0,8.0,27,0.00,,,0.00,690.000000,,2013-03-04 20:53:00,
2013-03-04 16:02:00,71.0,35.0,-100.00,NW,308,3.0,8.0,27,0.00,,,0.00,690.000000,,2013-03-04 21:02:00,
2013-03-04 16:11:00,71.0,34.0,-100.00,WNW,289,3.0,7.0,26,0.00,,,0.00,532.000000,,2013-03-04 21:11:00,
2013-03-04 16:32:00,71.0,34.0,-100.00,WNW,289,3.0,7.0,26,0.00,,,0.00,532.000000,,2013-03-04 21:32:00,
2013-03-04 16:43:00,71.0,34.0,-100.00,WNW,289,3.0,7.0,26,0.00,,,0.00,532.000000,,2013-03-04 21:43:00,
2013-03-04 16:53:00,71.0,34.0,-100.00,WNW,289,3.0,7.0,26,0.00,,,0.00,532.000000,,2013-03-04 21:53:00,
2013-03-04 17:02:00,71.0,34.0,-100.00,WNW,289,3.0,7.0,26,0.00,,,0.00,532.000000,,2013-03-04 22:02:00,
2013-03-04 17:11:00,72.0,37.0,-100.00,North,10,2.0,6.0,28,0.00,,,0.00,336.000000,,2013-03-04 22:11:00,
2013-03-04 17:32:00,72.0,37.0,-100.00,North,10,2.0,6.0,28,0.00,,,0.00,336.000000,,2013-03-04 22:32:00,
2013-03-04 17:43:00,72.0,37.0,-100.00,North,10,2.0,6.0,28,0.00,,,0.00,336.000000,,2013-03-04 22:43:00,
2013-03-04 17:52:00,72.0,37.0,-100.00,North,10,2.0,6.0,28,0.00,,,0.00,336.000000,,2013-03-04 22:52:00,
2013-03-04 18:02:00,72.0,37.0,-100.00,North,10,2.0,6.0,28,0.00,,,0.00,336.000000,,2013-03-04 23:02:00,
2013-03-04 18:11:00,62.0,47.0,-100.00,SSW,207,3.0,5.0,58,0.00,,,0.00,114.000000,,2013-03-04 23:11:00,
2013-03-04 18:32:00,62.0,47.0,-100.00,SSW,207,3.0,5.0,58,0.00,,,0.00,114.000000,,2013-03-04 23:32:00,
2013-03-04 18:42:00,62.0,47.0,-100.00,SSW,207,3.0,5.0,58,0.00,,,0.00,114.000000,,2013-03-04 23:42:00,
2013-03-04 18:52:00,62.0,47.0,-100.00,SSW,207,3.0,5.0,58,0.00,,,0.00,114.000000,,2013-03-04 23:52:00,
2013-03-04 19:02:00,62.0,47.0,-100.00,SSW,207,3.0,5.0,58,0.00,,,0.00,114.000000,,2013-03-05 00:02:00,
2013-03-04 19:11:00,51.0,46.0,-100.00,SW,219,1.0,4.0,84,0.00,,,0.00,4.000000,,2013-03-05 00:11:00,
2013-03-04 19:42:00,51.0,46.0,-100.00,SW,219,1.0,4.0,84,0.00,,,0.00,4.000000,,2013-03-05 00:42:00,
2013-03-04 19:52:00,51.0,46.0,-100.00,SW,219,1.0,4.0,84,0.00,,,0.00,4.000000,,2013-03-05 00:52:00,
2013-03-04 20:02:00,51.0,46.0,-100.00,SW,219,1.0,4.0,84,0.00,,,0.00,4.000000,,2013-03-05 01:02:00,
2013-03-04 21:11:00,44.0,42.0,-100.00,SSW,197,0.0,2.0,93,-99.99,,,0.00,0.000000,,2013-03-05 02:11:00,
2013-03-04 21:42:00,44.0,42.0,-100.00,SSW,197,0.0,2.0,93,-99.99,,,0.00,0.000000,,2013-03-05 02:42:00,
2013-03-04 21:53:00,44.0,42.0,-100.00,SSW,197,0.0,2.0,93,-99.99,,,0.00,0.000000,,2013-03-05 02:53:00,
2013-03-04 22:02:00,44.0,42.0,-100.00,SSW,197,0.0,2.0,93,-99.99,,,0.00,0.000000,,2013-03-05 03:02:00,
2013-03-04 22:11:00,42.0,40.0,-100.00,SW,223,0.0,0.0,94,0.00,,,0.00,0.000000,,2013-03-05 03:11:00,
2013-03-04 22:32:00,42.0,40.0,-100.00,SW,223,0.0,0.0,94,0.00,,,0.00,0.000000,,2013-03-05 03:32:00,
2013-03-04 22:42:00,42.0,40.0,-100.00,SW,223,0.0,0.0,94,0.00,,,0.00,0.000000,,2013-03-05 03:42:00,
2013-03-04 22:52:00,42.0,40.0,-100.00,SW,223,0.0,0.0,94,0.00,,,0.00,0.000000,,2013-03-05 03:52:00,
2013-03-04 23:02:00,42.0,40.0,-100.00,SW,223,0.0,0.0,94,0.00,,,0.00,0.000000,,2013-03-05 04:02:00,
2013-03-04 23:11:00,41.0,40.0,-100.00,ENE,63,0.0,0.0,95,0.00,,,0.00,0.000000,,2013-03-05 04:11:00,
2013-03-04 23:32:00,41.0,40.0,-100.00,ENE,63,0.0,0.0,95,0.00,,,0.00,0.000000,,2013-03-05 04:32:00,
2013-03-04 23:42:00,41.0,40.0,-100.00,ENE,63,0.0,0.0,95,0.00,,,0.00,0.000000,,2013-03-05 04:42:00,
2013-03-04 23:52:00,41.0,40.0,-100.00,ENE,63,0.0,0.0,95,0.00,,,0.00,0.000000,,2013-03-05 04:52:00,